Location: Unspecified
(38.0989°N, 0.6729°W)
Time: 11:53:56
(UTC+02:00)

Tiangong 1 - Visible Passes

Search period start: 20 August 2017 00:00
Search period end: 30 August 2017 00:00
Orbit: 312 x 337 km, 42.8° (Epoch: 20 August)

Date Brightness Start Highest point End Pass type
(mag) Time Alt. Az. Time Alt. Az. Time Alt. Az.
20 Aug 1.8 22:35:59 10° WNW 22:38:10 44° NNW 22:38:10 44° NNW visible
21 Aug 2.1 21:17:16 10° WNW 21:19:50 33° N 21:22:23 10° ENE visible
21 Aug 3.2 22:52:38 10° WNW 22:53:51 23° WNW 22:53:51 23° WNW visible
22 Aug 1.2 21:33:48 10° WNW 21:36:32 51° NNE 21:38:31 16° E visible
22 Aug 4.2 23:09:28 10° W 23:09:29 10° W 23:09:29 10° W visible
23 Aug 0.7 21:50:16 10° WNW 21:53:02 75° SSW 21:54:07 32° SE visible
24 Aug 2.0 22:06:52 10° W 22:09:21 29° SSW 22:09:42 28° SSW visible
25 Aug 3.5 22:24:18 10° WSW 22:25:17 12° SW 22:25:17 12° SW visible
26 Aug 2.1 21:03:59 10° W 21:06:34 33° SSW 21:09:06 10° SE visible
27 Aug 3.4 21:20:57 10° WSW 21:22:30 14° SW 21:24:02 10° S visible
